Time,TemperatureF,DewpointF,PressureIn,WindDirection,WindDirectionDegrees,WindSpeedMPH,WindSpeedGustMPH,Humidity,HourlyPrecipIn,Conditions,Clouds,dailyrainin,SoftwareType,DateUTC
2013-03-10 00:02:00,30.4,22.0,30.32,SE,142,0.0,2.0,71,0.00,,,0.00,weatherlink.com 1.10,2013-03-10 07:02:00,
2013-03-10 00:17:00,29.2,22.0,30.33,ESE,111,0.0,1.0,73,0.00,,,0.00,weatherlink.com 1.10,2013-03-10 07:17:00,
2013-03-10 00:32:00,29.2,22.0,30.34,SSE,167,1.0,3.0,75,0.00,,,0.00,weatherlink.com 1.10,2013-03-10 07:32:00,
2013-03-10 00:47:00,28.0,22.0,30.34,ENE,57,2.0,4.0,77,0.00,,,0.00,weatherlink.com 1.10,2013-03-10 07:47:00,
2013-03-10 01:02:00,29.3,23.0,30.34,East,97,2.0,5.0,76,0.00,,,0.00,weatherlink.com 1.10,2013-03-10 08:02:00,
2013-03-10 01:17:00,29.2,22.0,30.34,South,169,0.0,2.0,74,0.00,,,0.00,weatherlink.com 1.10,2013-03-10 08:17:00,
2013-03-10 01:32:00,27.6,22.0,30.34,SE,146,0.0,1.0,79,0.00,,,0.00,weatherlink.com 1.10,2013-03-10 08:32:00,
2013-03-10 01:47:00,28.2,22.0,30.35,SE,138,1.0,2.0,79,0.00,,,0.00,weatherlink.com 1.10,2013-03-10 08:47:00,
2013-03-10 03:02:00,27.7,22.0,30.34,South,173,0.0,2.0,79,0.00,,,0.00,weatherlink.com 1.10,2013-03-10 09:02:00,
2013-03-10 03:17:00,26.8,22.0,30.35,NE,41,2.0,5.0,81,0.00,,,0.00,weatherlink.com 1.10,2013-03-10 09:17:00,
2013-03-10 03:32:00,27.6,22.0,30.35,ENE,57,1.0,4.0,79,0.00,,,0.00,weatherlink.com 1.10,2013-03-10 09:32:00,
2013-03-10 03:47:00,27.8,22.0,30.34,NE,36,0.0,2.0,78,0.00,,,0.00,weatherlink.com 1.10,2013-03-10 09:47:00,
2013-03-10 04:02:00,26.7,21.0,30.34,NE,36,0.0,0.0,79,0.00,,,0.00,weatherlink.com 1.10,2013-03-10 10:02:00,
2013-03-10 04:17:00,26.3,22.0,30.34,NE,53,0.0,2.0,82,0.00,,,0.00,weatherlink.com 1.10,2013-03-10 10:17:00,
2013-03-10 04:32:00,25.7,22.0,30.34,NE,53,0.0,1.0,84,0.00,,,0.00,weatherlink.com 1.10,2013-03-10 10:32:00,
2013-03-10 04:47:00,25.8,22.0,30.34,NE,53,0.0,1.0,85,0.00,,,0.00,weatherlink.com 1.10,2013-03-10 10:47:00,
2013-03-10 05:02:00,25.6,21.0,30.34,NE,53,0.0,1.0,83,0.00,,,0.00,weatherlink.com 1.10,2013-03-10 11:02:00,
2013-03-10 05:18:00,25.9,21.0,30.35,NE,53,0.0,0.0,82,0.00,,,0.00,weatherlink.com 1.10,2013-03-10 11:18:00,
2013-03-10 05:33:00,25.6,20.0,30.35,ENE,59,0.0,2.0,79,0.00,,,0.00,weatherlink.com 1.10,2013-03-10 11:33:00,
2013-03-10 05:48:00,25.6,21.0,30.36,North,5,2.0,3.0,82,0.00,,,0.00,weatherlink.com 1.10,2013-03-10 11:48:00,
2013-03-10 06:03:00,24.3,20.0,30.35,North,5,0.0,0.0,84,0.00,,,0.00,weatherlink.com 1.10,2013-03-10 12:03:00,
2013-03-10 06:18:00,24.2,21.0,30.35,NNE,13,0.0,4.0,87,0.00,,,0.00,weatherlink.com 1.10,2013-03-10 12:18:00,
2013-03-10 06:33:00,23.5,20.0,30.35,NNE,13,0.0,1.0,86,0.00,,,0.00,weatherlink.com 1.10,2013-03-10 12:33:00,
2013-03-10 06:48:00,-999.0,-99.9,30.35,North,-999,-999.0,-999.0,-999,0.00,,,0.00,weatherlink.com 1.10,2013-03-10 12:48:00,
2013-03-10 07:03:00,-999.0,-99.9,30.35,North,-999,-999.0,-999.0,-999,0.00,,,0.00,weatherlink.com 1.10,2013-03-10 13:03:00,
2013-03-10 07:18:00,-999.0,-99.9,30.34,North,-999,-999.0,-999.0,-999,0.00,,,0.00,weatherlink.com 1.10,2013-03-10 13:18:00,
2013-03-10 07:33:00,-999.0,-99.9,30.34,North,-999,-999.0,-999.0,-999,0.00,,,0.00,weatherlink.com 1.10,2013-03-10 13:33:00,
2013-03-10 07:48:00,-999.0,-99.9,30.34,North,-999,-999.0,-999.0,-999,0.00,,,0.00,weatherlink.com 1.10,2013-03-10 13:48:00,
2013-03-10 08:03:00,-999.0,-99.9,30.34,North,-999,-999.0,-999.0,-999,0.00,,,0.00,weatherlink.com 1.10,2013-03-10 14:03:00,
2013-03-10 08:18:00,-999.0,-99.9,30.34,North,-999,-999.0,-999.0,-999,0.00,,,0.00,weatherlink.com 1.10,2013-03-10 14:18:00,
2013-03-10 08:33:00,-999.0,-99.9,30.33,North,-999,-999.0,-999.0,-999,0.00,,,0.00,weatherlink.com 1.10,2013-03-10 14:33:00,
2013-03-10 08:48:00,-999.0,-99.9,30.34,North,-999,-999.0,-999.0,-999,0.00,,,0.00,weatherlink.com 1.10,2013-03-10 14:48:00,
2013-03-10 09:03:00,-999.0,-99.9,30.34,North,-999,-999.0,-999.0,-999,0.00,,,0.00,weatherlink.com 1.10,2013-03-10 15:03:00,
2013-03-10 09:18:00,-999.0,-99.9,30.34,North,-999,-999.0,-999.0,-999,0.00,,,0.00,weatherlink.com 1.10,2013-03-10 15:18:00,
2013-03-10 09:34:00,-999.0,-99.9,30.34,North,-999,-999.0,-999.0,-999,0.00,,,0.00,weatherlink.com 1.10,2013-03-10 15:34:00,
2013-03-10 09:49:00,28.3,24.0,30.34,SSE,167,2.0,3.0,82,0.00,,,0.00,weatherlink.com 1.10,2013-03-10 15:49:00,
2013-03-10 10:04:00,29.5,23.0,30.34,SSE,159,0.0,5.0,78,0.00,,,0.00,weatherlink.com 1.10,2013-03-10 16:04:00,
2013-03-10 10:19:00,31.0,25.0,30.34,SW,223,2.0,3.0,77,0.00,,,0.00,weatherlink.com 1.10,2013-03-10 16:19:00,
2013-03-10 10:34:00,32.2,24.0,30.34,South,178,3.0,4.0,72,0.00,,,0.00,weatherlink.com 1.10,2013-03-10 16:34:00,
2013-03-10 10:49:00,33.4,23.0,30.33,SSW,209,7.0,8.0,67,0.00,,,0.00,weatherlink.com 1.10,2013-03-10 16:49:00,
2013-03-10 11:04:00,35.6,24.0,30.32,South,190,6.0,9.0,64,0.00,,,0.00,weatherlink.com 1.10,2013-03-10 17:04:00,
2013-03-10 11:19:00,37.8,24.0,30.32,South,170,6.0,10.0,58,0.00,,,0.00,weatherlink.com 1.10,2013-03-10 17:19:00,
2013-03-10 11:34:00,38.4,23.0,30.30,South,176,3.0,9.0,55,0.00,,,0.00,weatherlink.com 1.10,2013-03-10 17:34:00,
2013-03-10 11:49:00,39.6,23.0,30.29,SSE,164,6.0,9.0,51,0.00,,,0.00,weatherlink.com 1.10,2013-03-10 17:49:00,
2013-03-10 12:04:00,40.4,23.0,30.28,SSE,167,5.0,9.0,51,0.00,,,0.00,weatherlink.com 1.10,2013-03-10 18:04:00,
2013-03-10 12:19:00,41.4,23.0,30.27,South,179,0.0,9.0,48,0.00,,,0.00,weatherlink.com 1.10,2013-03-10 18:19:00,
2013-03-10 12:34:00,41.6,23.0,30.25,South,188,5.0,9.0,48,0.00,,,0.00,weatherlink.com 1.10,2013-03-10 18:34:00,
2013-03-10 12:49:00,42.7,23.0,30.24,SSE,151,4.0,9.0,46,0.00,,,0.00,weatherlink.com 1.10,2013-03-10 18:49:00,
2013-03-10 13:04:00,43.5,23.0,30.23,South,188,7.0,10.0,44,0.00,,,0.00,weatherlink.com 1.10,2013-03-10 19:04:00,
2013-03-10 13:19:00,44.3,22.0,30.22,South,188,8.0,10.0,42,0.00,,,0.00,weatherlink.com 1.10,2013-03-10 19:19:00,
2013-03-10 13:34:00,44.8,22.0,30.21,South,188,7.0,10.0,41,0.00,,,0.00,weatherlink.com 1.10,2013-03-10 19:34:00,
2013-03-10 13:49:00,45.8,23.0,30.21,South,179,2.0,9.0,40,0.00,,,0.00,weatherlink.com 1.10,2013-03-10 19:49:00,
2013-03-10 14:05:00,46.6,23.0,30.19,South,186,8.0,11.0,39,0.00,,,0.00,weatherlink.com 1.10,2013-03-10 20:05:00,
2013-03-10 14:20:00,47.6,22.0,30.17,WSW,244,8.0,13.0,37,0.00,,,0.00,weatherlink.com 1.10,2013-03-10 20:20:00,
2013-03-10 14:35:00,48.5,22.0,30.16,ESE,122,3.0,11.0,35,0.00,,,0.00,weatherlink.com 1.10,2013-03-10 20:35:00,
2013-03-10 14:50:00,49.0,22.0,30.16,South,182,4.0,10.0,35,0.00,,,0.00,weatherlink.com 1.10,2013-03-10 20:50:00,
2013-03-10 15:05:00,49.2,22.0,30.14,SSW,209,0.0,7.0,35,0.00,,,0.00,weatherlink.com 1.10,2013-03-10 21:05:00,
2013-03-10 15:20:00,49.6,22.0,30.14,South,173,3.0,9.0,34,0.00,,,0.00,weatherlink.com 1.10,2013-03-10 21:20:00,
2013-03-10 15:35:00,49.7,22.0,30.13,South,182,2.0,12.0,34,0.00,,,0.00,weatherlink.com 1.10,2013-03-10 21:35:00,
2013-03-10 15:50:00,50.8,22.0,30.12,South,174,5.0,7.0,33,0.00,,,0.00,weatherlink.com 1.10,2013-03-10 21:50:00,
2013-03-10 16:05:00,50.6,21.0,30.12,SSW,198,2.0,6.0,31,0.00,,,0.00,weatherlink.com 1.10,2013-03-10 22:05:00,
2013-03-10 16:20:00,50.3,23.0,30.12,WNW,296,6.0,8.0,34,0.00,,,0.00,weatherlink.com 1.10,2013-03-10 22:20:00,
2013-03-10 16:35:00,49.7,22.0,30.11,NW,317,6.0,8.0,34,0.00,,,0.00,weatherlink.com 1.10,2013-03-10 22:35:00,
2013-03-10 16:50:00,50.0,22.0,30.11,WNW,291,4.0,8.0,34,0.00,,,0.00,weatherlink.com 1.10,2013-03-10 22:50:00,
2013-03-10 17:05:00,50.2,22.0,30.11,NW,314,8.0,19.0,33,0.00,,,0.00,weatherlink.com 1.10,2013-03-10 23:05:00,
2013-03-10 17:20:00,49.4,23.0,30.10,NNW,348,13.0,17.0,35,0.00,,,0.00,weatherlink.com 1.10,2013-03-10 23:20:00,
2013-03-10 17:35:00,49.5,22.0,30.10,NNW,332,9.0,18.0,34,0.00,,,0.00,weatherlink.com 1.10,2013-03-10 23:35:00,
2013-03-10 17:50:00,49.6,22.0,30.09,WNW,300,5.0,14.0,34,0.00,,,0.00,weatherlink.com 1.10,2013-03-10 23:50:00,
2013-03-10 18:05:00,49.6,22.0,30.08,NW,308,6.0,9.0,34,0.00,,,0.00,weatherlink.com 1.10,2013-03-11 00:05:00,
2013-03-10 18:20:00,48.8,21.0,30.08,WNW,303,11.0,21.0,33,0.00,,,0.00,weatherlink.com 1.10,2013-03-11 00:20:00,
2013-03-10 18:35:00,48.1,21.0,30.08,NW,317,5.0,17.0,35,0.00,,,0.00,weatherlink.com 1.10,2013-03-11 00:35:00,
2013-03-10 18:50:00,47.3,21.0,30.09,North,350,8.0,18.0,36,0.00,,,0.00,weatherlink.com 1.10,2013-03-11 00:50:00,
2013-03-10 19:05:00,46.1,23.0,30.10,WNW,303,16.0,23.0,40,0.00,,,0.00,weatherlink.com 1.10,2013-03-11 01:05:00,
2013-03-10 19:20:00,44.8,25.0,30.11,West,263,11.0,19.0,46,0.00,,,0.00,weatherlink.com 1.10,2013-03-11 01:20:00,
2013-03-10 19:35:00,43.6,26.0,30.11,NW,306,13.0,25.0,50,0.00,,,0.00,weatherlink.com 1.10,2013-03-11 01:35:00,
2013-03-10 19:50:00,43.1,26.0,30.12,North,349,14.0,23.0,52,0.00,,,0.00,weatherlink.com 1.10,2013-03-11 01:50:00,
2013-03-10 20:05:00,42.9,27.0,30.12,NNE,15,9.0,19.0,53,0.00,,,0.00,weatherlink.com 1.10,2013-03-11 02:05:00,
2013-03-10 20:20:00,42.6,27.0,30.12,NW,306,6.0,22.0,54,0.00,,,0.00,weatherlink.com 1.10,2013-03-11 02:20:00,
2013-03-10 20:35:00,42.2,27.0,30.12,North,5,11.0,17.0,56,0.00,,,0.00,weatherlink.com 1.10,2013-03-11 02:35:00,
2013-03-10 20:50:00,41.6,28.0,30.13,NE,40,8.0,21.0,58,0.00,,,0.00,weatherlink.com 1.10,2013-03-11 02:50:00,
2013-03-10 21:05:00,41.3,29.0,30.13,North,355,14.0,18.0,61,0.00,,,0.00,weatherlink.com 1.10,2013-03-11 03:05:00,
2013-03-10 21:20:00,40.6,29.0,30.14,North,360,17.0,21.0,64,0.00,,,0.00,weatherlink.com 1.10,2013-03-11 03:20:00,
2013-03-10 21:35:00,40.1,30.0,30.13,North,360,9.0,13.0,67,0.00,,,0.00,weatherlink.com 1.10,2013-03-11 03:35:00,
2013-03-10 21:50:00,39.7,31.0,30.14,North,355,8.0,12.0,70,0.00,,,0.00,weatherlink.com 1.10,2013-03-11 03:50:00,
2013-03-10 22:05:00,39.4,31.0,30.14,NW,314,6.0,16.0,71,0.00,,,0.00,weatherlink.com 1.10,2013-03-11 04:05:00,
2013-03-10 22:20:00,38.7,31.0,30.14,NNW,332,8.0,14.0,74,0.00,,,0.00,weatherlink.com 1.10,2013-03-11 04:20:00,
2013-03-10 22:35:00,38.9,31.0,30.14,North,5,6.0,11.0,73,0.00,,,0.00,weatherlink.com 1.10,2013-03-11 04:35:00,
2013-03-10 22:50:00,38.9,32.0,30.15,North,10,9.0,12.0,75,0.00,,,0.00,weatherlink.com 1.10,2013-03-11 04:50:00,
2013-03-10 23:05:00,38.9,31.0,30.14,NNW,342,5.0,12.0,74,0.00,,,0.00,weatherlink.com 1.10,2013-03-11 05:05:00,
2013-03-10 23:20:00,39.0,31.0,30.14,NW,314,5.0,9.0,74,0.00,,,0.00,weatherlink.com 1.10,2013-03-11 05:20:00,
2013-03-10 23:35:00,37.7,32.0,30.14,North,5,9.0,11.0,81,0.00,,,0.00,weatherlink.com 1.10,2013-03-11 05:35:00,
2013-03-10 23:50:00,37.9,32.0,30.14,NE,51,0.0,2.0,80,0.00,,,0.00,weatherlink.com 1.10,2013-03-11 05:50:00,